Location: Unspecified
(0.0000°N, 0.0000°E)
Time: 21:01:47
(UTC+00:00)

Courier 1B - All Passes

Search period start: 16 September 2019 00:00
Search period end: 26 September 2019 00:00
Orbit: 962 x 1209 km, 28.3° (Epoch: 15 September)

Date Brightness Start Highest point End Pass type
(mag) Time Alt. Az. Time Alt. Az. Time Alt. Az.
16 Sep - 00:32:59 10° SSE 00:34:05 10° SSE 00:35:10 10° SSE night (unlit)
16 Sep - 02:22:49 10° SW 02:28:46 37° SSE 02:34:54 10° E visible
16 Sep - 04:16:19 10° WSW 04:22:50 60° NNW 04:29:43 10° NE visible
16 Sep - 06:12:51 10° WNW 06:17:27 18° NNW 06:22:14 10° NNE daylight
16 Sep - 12:03:47 10° N 12:06:58 13° NNE 12:10:10 10° NE daylight
16 Sep - 13:55:12 10° NW 14:02:19 37° NNE 14:09:14 10° E daylight
16 Sep - 15:49:04 10° WNW 15:56:49 73° SSW 16:04:12 10° SE daylight
16 Sep - 17:45:45 10° WSW 17:51:19 22° SSW 17:56:41 10° SSE daylight
17 Sep - 01:29:37 10° SSW 01:34:57 26° SSE 01:40:20 10° E night (unlit)
17 Sep - 03:22:30 10° WSW 03:29:03 84° NNW 03:35:54 10° ENE visible
17 Sep - 05:18:05 10° WNW 05:23:24 24° NNW 05:28:56 10° NNE visible
17 Sep - 13:01:42 10° NNW 13:08:11 28° NNE 13:14:36 10° E daylight
17 Sep - 14:54:58 10° WNW 15:02:51 84° NNE 15:10:26 10° ESE daylight
17 Sep - 16:50:44 10° W 16:57:18 31° SSW 17:03:35 10° SSE daylight
18 Sep - 00:36:36 10° SSW 00:41:03 19° SSE 00:45:30 10° ESE night (unlit)
18 Sep - 02:28:51 10° SW 02:35:18 70° SSE 02:41:57 10° ENE visible
18 Sep - 04:23:38 10° W 04:29:27 32° NNW 04:35:32 10° NE visible
18 Sep - 06:23:22 10° NNW 06:24:34 10° NNW 06:25:46 10° N daylight
18 Sep - 12:08:24 10° NNW 12:14:00 21° NNE 12:19:36 10° ENE daylight
18 Sep - 14:01:03 10° NW 14:08:50 63° NNE 14:16:26 10° ESE daylight
18 Sep - 15:56:01 10° W 16:03:17 42° SSW 16:10:15 10° SE daylight
18 Sep - 17:54:55 10° SW 17:58:13 13° SSW 18:01:26 10° S daylight
18 Sep - 23:43:54 10° S 23:47:04 14° SSE 23:50:13 10° SE night (unlit)
19 Sep - 01:35:20 10° SW 01:41:34 49° SSE 01:47:52 10° ENE night (unlit)
19 Sep - 03:29:26 10° W 03:35:36 45° NNW 03:42:01 10° NE visible
19 Sep - 05:27:06 10° NW 05:30:21 14° NNW 05:33:40 10° N visible
19 Sep - 11:15:22 10° NNW 11:19:44 16° NNE 11:24:09 10° ENE daylight
19 Sep - 13:07:19 10° NW 13:14:48 47° NNE 13:22:12 10° E daylight
19 Sep - 15:01:35 10° WNW 15:09:16 57° SSW 15:16:44 10° SE daylight
19 Sep - 16:59:02 10° WSW 17:04:01 18° SSW 17:08:52 10° SSE daylight
20 Sep - 00:41:58 10° SW 00:47:47 34° SSE 00:53:36 10° E night (unlit)
20 Sep - 02:35:26 10° WSW 02:41:49 63° NNW 02:48:24 10° NE visible
20 Sep - 04:31:53 10° WNW 04:36:15 18° NNW 04:40:44 10° NNE visible
20 Sep - 10:22:57 10° N 10:25:24 12° NNE 10:27:54 10° NE daylight
20 Sep - 12:13:46 10° NW 12:20:43 35° NNE 12:27:42 10° E daylight
20 Sep - 14:07:23 10° WNW 14:15:16 78° SSW 14:23:00 10° SE daylight
20 Sep - 16:03:45 10° W 16:09:53 25° SSW 16:15:51 10° SSE daylight
20 Sep - 23:48:42 10° SSW 23:53:57 25° SSE 23:59:07 10° E night (unlit)
21 Sep - 01:41:36 10° WSW 01:48:05 89° NW 01:54:39 10° ENE night (unlit)
21 Sep - 03:37:08 10° W 03:42:17 24° NNW 03:47:35 10° NNE visible
21 Sep - 11:20:24 10° NNW 11:26:36 26° NNE 11:32:53 10° E daylight
21 Sep - 13:13:24 10° NW 13:21:15 80° NNE 13:29:06 10° ESE daylight
21 Sep - 15:08:51 10° W 15:15:47 34° SSW 15:22:34 10° SSE daylight
21 Sep - 17:09:11 10° SW 17:11:03 11° SSW 17:12:54 10° S daylight
21 Sep - 22:55:36 10° SSW 23:00:01 18° SSE 23:04:20 10° ESE night (unlit)
22 Sep - 00:47:54 10° SW 00:54:22 65° SSE 01:00:47 10° ENE night (unlit)
22 Sep - 02:42:40 10° W 02:48:25 33° NNW 02:54:17 10° NE visible
22 Sep - 10:27:17 10° NNW 10:32:26 19° NNE 10:37:42 10° ENE daylight
22 Sep - 12:19:36 10° NW 12:27:13 59° NNE 12:34:57 10° ESE daylight
22 Sep - 14:14:17 10° W 14:21:43 45° SSW 14:29:05 10° SE daylight
22 Sep - 16:12:36 10° SW 16:16:45 15° SSW 16:20:51 10° S daylight
22 Sep - 22:02:46 10° S 22:05:58 14° SSE 22:09:07 10° SE night (unlit)
22 Sep - 23:54:19 10° SW 00:00:37 46° SSE 00:06:46 10° E night (unlit)
23 Sep - 01:48:26 10° WSW 01:54:38 47° NNW 02:00:51 10° NE night (unlit)
23 Sep - 03:46:06 10° NW 03:49:11 14° NNW 03:52:19 10° N visible
23 Sep - 09:34:31 10° N 09:38:13 14° NNE 09:41:58 10° NE daylight
23 Sep - 11:26:00 10° NW 11:33:11 44° NNE 11:40:35 10° E daylight
23 Sep - 13:19:58 10° WNW 13:27:40 61° SSW 13:35:25 10° SE daylight
23 Sep - 15:17:01 10° WSW 15:22:30 20° SSW 15:27:56 10° SSE daylight
23 Sep - 21:11:02 10° SSE 21:11:48 10° SSE 21:12:33 10° SSE visible
23 Sep - 23:00:52 10° SW 23:06:49 33° SSE 23:12:33 10° E night (unlit)
24 Sep - 00:54:23 10° WSW 01:00:53 67° NNW 01:07:19 10° NE night (unlit)
24 Sep - 02:50:51 10° WNW 02:55:11 19° NNW 02:59:34 10° NNE visible
24 Sep - 08:43:37 10° NNE 08:43:55 10° NNE 08:44:14 10° NNE daylight
24 Sep - 10:32:36 10° NNW 10:39:09 32° NNE 10:45:56 10° E daylight
24 Sep - 12:25:54 10° WNW 12:33:39 82° SSW 12:41:34 10° ESE daylight
24 Sep - 14:21:55 10° W 14:28:19 27° SSW 14:34:42 10° SSE daylight
24 Sep - 22:07:30 10° SSW 22:12:54 24° SSE 22:18:06 10° ESE night (unlit)
25 Sep - 00:00:30 10° WSW 00:07:10 86° SSE 00:13:39 10° ENE night (unlit)
25 Sep - 01:56:02 10° W 02:01:17 25° NNW 02:06:31 10° NNE night (unlit)
25 Sep - 09:39:24 10° NNW 09:45:05 24° NNE 09:50:58 10° ENE daylight
25 Sep - 11:32:03 10° NW 11:39:39 75° NNE 11:47:31 10° ESE daylight
25 Sep - 13:27:11 10° W 13:34:11 36° SSW 13:41:16 10° SE daylight
25 Sep - 15:26:33 10° SW 15:29:31 12° SSW 15:32:29 10° S daylight
25 Sep - 21:14:17 10° SSW 21:18:54 18° SSE 21:23:21 10° ESE visible
25 Sep - 23:06:43 10° SW 23:13:26 61° SSE 23:19:50 10° ENE night (unlit)
